Flag for U.S.A. Weather past 2 weeks in Baker Island, U.S.A.

Now
84 °F

Scattered showers. More clouds than sun.


Feels Like: 96 °F
Forecast: 82 / 87 °F
Wind: 23 mph from Southwest

Location: Funafuti

Current Time: Jan 27, 2015 at 9:26:18 AM

Latest Report: Jan 27, 2015 at 8:00 AM


Visibility: N/A

Pressure: 29.68 "Hg

Humidity: 84%

Dew point: 79 °F

Location of Baker IslandLocation

Historic Weather in Baker Island — Graph

°F

Baker Island temperature yesterday

Maximum temperature yesterday: 82 °F (at 1:00 AM)
Minimum temperature yesterday: 75 °F (at 11:00 AM)
Average temperature yesterday: 78 °F

Past Weeks' High & Low Weather Summary

 TemperatureHumidityPressure
High91 °F (Jan 16, 2:00 PM)100% (Jan 25, 11:00 PM)29.92 "Hg (Jan 25, 11:00 PM)
Low75 °F (Jan 26, 11:00 AM)62% (Jan 18, 4:00 PM)29.59 "Hg (Jan 25, 1:00 PM)
Average84 °F81%29.77 "Hg
* Reported Jan 12 9:00 AM — Jan 27 8:00 AM, Baker Island, Weather by CustomWeather, © 2014

Note: Actual official high and low records may vary slightly from our data, if they occured in-between our weather recording intervals... More about our weather records

Advertising

Baker Island weather history for previous 24 hours

 ConditionsComfort  
Time TempWeatherWind HumidityBarometerVisibility
8:00 AM
Jan 27
84 °FScattered showers. More clouds than sun.23 mph84%29.68 "HgN/A
7:00 AM82 °FScattered showers. More clouds than sun.23 mph89%29.62 "HgN/A
6:00 AM82 °FScattered showers. More clouds than sun.21 mph89%29.62 "HgN/A
5:00 AM82 °FScattered showers. Mostly cloudy.18 mph84%29.59 "HgN/A
4:00 AM79 °FScattered showers. Mostly cloudy.23 mph89%29.59 "HgN/A
3:00 AM77 °FRain. Mostly cloudy.23 mph94%29.65 "HgN/A
2:00 AM77 °FRain. Mostly cloudy.26 mph89%29.65 "HgN/A
1:00 AM77 °FRain. Mostly cloudy.28 mph94%29.68 "HgN/A
12:00 AM77 °FSprinkles. Mostly cloudy.7 mph94%29.74 "HgN/A
11:00 PM
Jan 26
75 °FRain showers. Mostly cloudy.14 mph100%29.71 "HgN/A
10:00 PM75 °FHeavy rain. Mostly cloudy.6 mph100%29.71 "HgN/A
9:00 PM77 °FRain. Mostly cloudy.3 mph94%29.74 "HgN/A
8:00 PM75 °FRain. Mostly cloudy.7 mph100%29.65 "HgN/A
7:00 PM75 °FRain. Mostly cloudy.9 mph100%29.68 "HgN/A
6:00 PM75 °FThunderstorms. Mostly cloudy.No wind100%29.68 "HgN/A
5:00 PM77 °FRain showers. Mostly cloudy.7 mph94%29.65 "HgN/A
4:00 PM77 °FRain. Mostly cloudy.1 mph100%29.65 "HgN/A
3:00 PM79 °FSprinkles. More clouds than sun.1 mph94%29.65 "HgN/A
2:00 PM77 °FSprinkles. More clouds than sun.3 mph100%29.68 "HgN/A
1:00 PM77 °FSprinkles. More clouds than sun.9 mph94%29.68 "HgN/A
12:00 PM75 °FThunderstorms. More clouds than sun.8 mph94%29.71 "HgN/A
11:00 AM75 °FRain. Mostly cloudy.15 mph94%29.71 "HgN/A
10:00 AM77 °FRain. More clouds than sun.2 mph94%29.71 "HgN/A
9:00 AM77 °FSprinkles. More clouds than sun.2 mph94%29.71 "HgN/A
Weather by CustomWeather, © 2014

See weather overviewHow to use our weather pages